Radio RS-1

operational
NORAD ID: 11085 Int'l Des: 1978-100 Owner: MAIO/MOM Country: SU
LEOCIRCULARPOLAR

About Radio RS-1

Description loading...

Live Position

Loading 3D Globe...

Upcoming Passes

Altitude History

Altitude vs Time

uPlot chart will show altitude changes over time

Two-Line Element Set

1 11085U 78100B 26061.62652486 .00000032 00000-0 29874-3 0 9993
2 11085 82.5443 106.7211 0013166 185.8463 296.5304 11.96568193 68072
Epoch: Mar 2, 2026 • Age: 40 hours

Current Status

Altitude 1709.0 km
Velocity 7.02 km/s
Sub-Earth Point 5.11°N, 58.27°E
Launch Date Oct 26, 1978
Age 47.3 years
Type other

Technical Details

Classification Payload
Mass 40.00 kg
Dry Mass 40.00 kg
Total Mass 40.00 kg
Length 0.30 m
Diameter 0.40 m
Span 1.50 m
Shape Cyl + Ant
Manufacturer MEI/MAIO
Bus Type RS
Phase Status In Orbit
Owner/State MAIO/MOM/SU

Large Constellations

Loading constellations...